Dewpoint
68 69 70 70 70 71 70 69 70 70 69 68 67 66 66 66 66 66 66 64 63 64 64 63 64 64 64 63 61 62 60 60 58 60 62 62 62 63 64 63 64 62 61
68 68 68 68 68 68 68 68 68 68 67 66 65 63 62 63 65 64 63 62 62 63 63 63 63 64 63 63 63 61 61 61 60 59 61 62 62 64 64 64 63 62 61
67 67 67 67 66 66 66 67 66 66 66 63 62 61 60 61 62 64 63 62 62 63 63 62 62 63 62 62 63 62 62 62 61 60 60 61 62 62 62 62 60 60 60
65 65 65 65 65 65 66 66 64 63 63 62 62 59 60 61 62 62 62 63 63 62 63 62 62 62 62 62 62 62 63 62 61 59 59 59 60 60 60 58 57 59 58
63 63 64 65 64 64 64 64 63 62 61 60 61 61 63 61 61 64 64 64 63 63 63 63 63 62 60 62 64 63 63 61 59 57 57 57 57 58 57 58 56 56 57
62 62 62 62 61 63 63 61 63 62 62 61 61 62 62 59 49 52 60 64 62 62 62 63 62 58 56 56 57 59 61 61 58 57 56 56 57 57 57 56 56 55 53
57 57 57 59 60 60 61 60 62 64 64 62 62 63 63 59 49 51 55 64 64 63 63 62 62 62 61 60 53 55 55 54 57 58 57 57 57 58 57 56 56 55 55
54 53 57 58 59 60 60 61 64 64 65 64 64 64 62 57 49 51 55 63 64 63 63 63 63 62 61 61 61 61 61 60 60 59 59 58 58 58 58 57 56 55 56
55 55 57 57 59 59 60 62 64 64 64 64 64 64 62 59 49 52 58 61 62 62 60 60 62 61 51 51 60 59 57 55 51 50 51 50 48 50 54 56 54 54 53
55 54 56 56 57 59 61 63 64 64 64 64 63 64 57 60 48 50 57 59 58 58 61 58 50 55 49 51 60 58 56 56 56 56 55 51 53 52 51 57 55 53 53
53 54 56 58 59 61 62 63 63 64 63 63 63 63 62 60 56 50 52 60 59 58 58 58 54 45 46 48 53 58 55 56 54 57 56 56 57 57 57 57 55 55 53
53 53 57 59 56 60 62 64 63 64 63 63 62 62 61 60 51 50 50 53 54 58 57 56 52 43 44 46 52 45 47 52 56 55 55 55 56 56 56 56 57 57 56
56 58 58 58 59 61 62 63 61 64 63 62 61 60 59 58 56 45 46 49 49 57 57 47 43 43 43 45 44 46 50 55 55 54 54 55 55 56 56 56 56 57 59
58 59 59 60 61 62 61 64 64 64 64 63 62 61 59 58 58 57 55 55 50 52 49 53 50 48 49 50 52 54 56 55 54 54 54 55 56 56 57 56 55 59 58
58 58 58 59 61 61 57 55 62 56 60 63 63 61 59 58 57 54 55 57 57 54 55 56 55 54 54 55 56 56 55 55 55 55 55 55 55 55 57 58 59 58 55
57 57 56 57 61 59 58 57 43 43 42 42 47 58 58 51 46 45 45 46 47 45 56 55 55 54 54 55 56 57 56 55 55 55 55 55 55 56 57 57 57 55 53
57 59 54 56 56 57 58 57 56 51 43 42 42 47 49 47 43 43 45 44 42 46 58 55 55 55 56 58 57 57 56 57 58 56 56 56 56 56 53 55 55 54 52
57 48 55 56 55 57 57 56 57 57 56 56 45 45 42 42 42 42 42 47 54 53 58 55 55 57 58 59 58 57 57 58 58 57 57 57 56 55 55 55 53 52 51
54 53 57 56 56 56 59 58 56 57 56 56 54 49 43 40 40 41 42 57 56 57 57 57 57 58 59 59 59 58 57 57 57 57 57 57 56 56 53 52 52 46 47
52 48 50 56 56 56 58 57 57 57 56 57 58 55 54 54 56 55 55 58 57 59 56 56 58 58 58 58 58 57 57 57 57 58 57 55 55 55 53 53 53 51 51
48 54 49 53 54 55 56 57 57 56 55 57 58 56 48 57 56 56 57 58 58 57 58 58 56 57 56 57 58 58 58 57 57 57 56 56 56 54 55 54 54 52 49
53 49 53 53 51 52 55 56 57 56 55 55 57 54 42 57 56 57 57 58 58 59 59 59 57 56 57 57 57 57 57 57 57 56 56 56 56 56 55 54 53 53 53
56 49 49 52 52 51 55 52 54 55 55 54 56 56 55 58 59 58 58 59 58 58 57 54 55 54 53 52 52 50 51 52 55 57 58 57 56 56 56 55 55 54 55
55 55 55 54 54 55 54 55 53 49 55 54 55 55 55 55 55 56 55 56 53 50 49 48 46 44 43 43 43 43 40 39 49 50 56 59 57 55 57 56 55 55 55
50 49 50 52 52 52 51 51 51 52 50 49 50 50 50 50 50 51 53 52 51 50 46 44 44 42 39 37 36 36 34 33 38 37 53 57 58 59 57 56 56 56 55
45 45 46 46 45 44 45 45 46 46 45 45 45 45 45 45 45 45 46 46 46 45 43 41 38 37 35 34 33 32 32 33 36 36 51 54 54 53 51 53 55 55 56
Lifted_Index
-6 -6 -6 -6 -6 -6 -6 -6 -6 -6 -5 -5 -5 -4 -4 -3 -3 -3 -2 -2 -2 -2 -2 -2 -2 -2 -2 -1 -1 -0 0 0 -0 -0 -0 -0 -1 -1 -1 -1 -1 -1 -0
-6 -6 -5 -5 -5 -5 -5 -5 -5 -5 -5 -4 -4 -3 -3 -3 -2 -2 -2 -2 -2 -2 -2 -2 -2 -2 -2 -1 -1 -0 0 0 -0 -0 -0 -1 -1 -1 -1 -1 -1 -0 -0
-5 -5 -5 -4 -4 -4 -4 -4 -4 -3 -3 -3 -2 -2 -2 -2 -2 -2 -2 -2 -2 -2 -2 -1 -2 -2 -2 -1 -1 -1 -0 -0 -0 -0 -0 -1 -1 -1 -1 -0 0 0 0
-4 -4 -4 -4 -3 -3 -3 -3 -2 -2 -2 -1 -1 -1 -1 -1 -2 -2 -2 -2 -2 -2 -1 -1 -1 -2 -2 -2 -2 -1 -1 -1 -0 -0 0 -0 -0 -0 0 0 0 0 0
-4 -3 -3 -3 -3 -2 -2 -2 -1 -1 -1 -1 -1 -1 -1 -1 -1 -2 -2 -2 -2 -1 -1 -1 -1 -1 -2 -2 -2 -2 -2 -1 -0 0 1 1 1 1 1 1 1 1 1
-3 -3 -2 -2 -2 -1 -1 -0 -1 -1 -0 -0 -1 -1 -1 -1 -0 -1 -1 -2 -2 -1 -1 -1 -1 -1 -1 -1 -2 -2 -2 -1 -0 1 1 1 1 1 1 1 1 1 1
-1 -1 -1 -1 -1 -0 0 0 -0 -1 -0 -0 -1 -1 -1 -0 0 -0 -1 -2 -2 -1 -1 -1 -1 -1 -1 -1 -1 -1 -1 -1 0 1 1 1 2 2 2 2 2 2 2
-0 -0 -0 -0 0 0 0 0 -0 -0 -1 -1 -1 -1 -0 0 1 0 -0 -1 -1 -1 -1 -1 -1 -1 -1 -1 -1 -1 -1 -0 1 1 1 1 1 2 2 2 2 2 2
-0 -0 -0 0 0 0 0 -0 -0 -0 -1 -1 -2 -1 -0 1 1 1 0 0 0 0 -0 -0 -0 -0 -0 -1 -1 -0 0 1 1 2 1 1 1 2 2 2 2 2 2
-0 -0 0 0 1 0 -0 -0 -0 -0 -1 -1 -2 -1 0 1 1 1 1 1 1 1 1 1 0 1 0 -0 -0 0 1 1 2 2 2 2 2 2 2 2 2 2 2
0 0 0 1 1 0 0 -0 -0 -1 -1 -1 -1 -1 0 1 1 1 1 1 2 2 2 2 1 1 1 1 1 1 1 2 2 2 2 2 2 2 2 2 2 2 3
0 0 1 1 1 0 -0 -0 -1 -1 -1 -1 -1 -1 0 1 1 1 1 2 2 3 3 3 2 2 2 2 1 1 2 2 2 2 2 2 3 2 2 3 3 3 3
0 0 1 1 0 -0 -1 -1 -1 -1 -2 -2 -1 -1 1 1 1 1 1 2 3 4 4 4 3 3 3 3 2 2 3 3 3 3 3 3 3 3 3 3 3 3 4
-1 -0 0 -0 -1 -1 -1 -1 -1 -2 -2 -2 -2 -1 0 1 1 2 2 3 4 4 5 5 4 4 4 4 4 4 3 3 3 3 3 3 3 3 3 3 3 3 3
-1 -1 -1 -1 -1 -1 -1 -1 -1 -1 -2 -2 -1 -1 0 1 2 2 3 4 4 5 5 5 5 4 4 4 4 4 4 3 3 3 3 3 3 3 3 3 3 3 3
-1 -1 -1 -1 -2 -1 -1 -1 -1 -1 -1 -1 -1 -0 0 1 2 3 3 4 4 4 5 5 5 5 4 4 4 4 4 4 3 3 3 3 3 3 3 3 3 3 3
-1 -1 -1 -1 -1 -1 -1 -0 -0 -1 -1 -0 0 0 0 1 2 3 3 4 4 4 4 4 4 4 4 4 4 4 3 3 3 3 3 3 3 3 2 2 2 3 3
-1 -1 -1 -1 -1 -1 -1 -1 -1 -0 0 1 1 1 1 1 2 3 3 3 3 3 3 3 3 3 3 3 3 3 3 2 2 2 2 2 2 2 2 2 2 3 3
-1 -1 -1 -2 -2 -1 -1 -1 -1 -0 0 1 1 1 1 1 2 2 3 3 2 2 2 2 2 2 2 2 2 2 2 2 2 2 2 2 2 2 2 2 2 3 3
-1 -1 -1 -2 -2 -2 -2 -2 -1 -1 -0 0 1 1 1 2 2 2 2 2 2 2 2 2 2 1 1 1 1 1 1 1 1 1 1 1 1 1 2 2 2 3 3
-1 -1 -1 -2 -2 -2 -2 -2 -2 -2 -1 -1 -0 0 1 1 1 2 1 1 1 1 1 1 1 1 1 0 0 0 1 1 1 1 1 1 1 1 1 2 2 2 2
-1 -1 -1 -1 -2 -2 -2 -2 -2 -2 -2 -1 -1 -0 -0 -0 0 0 0 0 -0 -0 -0 -0 -0 -0 -0 -0 -0 -0 -0 -0 -0 -0 -0 -0 0 0 1 1 1 1 1
-1 -1 -1 -1 -1 -1 -1 -1 -1 -2 -2 -1 -1 -1 -1 -1 -1 -1 -1 -1 -1 -1 -1 -1 -1 -1 -1 -1 -1 -1 -1 -1 -1 -1 -1 -1 -1 -1 -1 -1 -1 -1 -1
-1 -1 -1 -1 -1 -1 -1 -1 -1 -2 -2 -1 -1 -1 -1 -1 -2 -2 -2 -2 -2 -2 -2 -2 -2 -2 -2 -1 -1 -1 -1 -1 -1 -1 -2 -2 -2 -2 -2 -2 -2 -2 -2
-1 -1 -1 -1 -1 -1 -1 -2 -2 -2 -2 -1 -1 -1 -1 -1 -1 -2 -2 -2 -2 -2 -2 -2 -2 -2 -2 -1 -1 -1 -1 -1 -1 -1 -1 -1 -1 -1 -2 -2 -2 -2 -2
-0 -1 -1 -1 -1 -1 -1 -2 -2 -2 -2 -2 -1 -1 -1 -1 -1 -2 -2 -2 -2 -2 -2 -2 -2 -1 -1 -1 -1 -1 -1 -1 -1 -1 -1 -1 -1 -1 -1 -1 -1 -1 -1